Regional Weather Roundup
Issued by NWS

Home | Current Version | Previous Version | Graphics & Text | Print | Product List | Glossary On
Versions: 1 2 3 4 5 6 7 8 9 10 11 12 13 14 15 16 17 18 19 20 21 22 23 24 25 26 27 28 29 30 31 32 33 34 35 36 37 38 39 40 41 42 43 44 45 46 47 48 49 50
000
ASUS43 KFSD 242110
RWRSD

WEATHER ROUNDUP FOR SOUTH DAKOTA
NATIONAL WEATHER SERVICE SIOUX FALLS SD
400 PM CDT MON APR 24 2017

NOTE: "FAIR" INDICATES FEW OR NO CLOUDS BELOW 12,000 FEET WITH NO
SIGNIFICANT WEATHER AND/OR OBSTRUCTIONS TO VISIBILITY.


SDZ001>005-009-010-012>017-242200-
NORTHWEST AND NORTH CENTRAL SOUTH DAKOTA

CITY           SKY/WX    TMP DP  RH WIND       PRES   REMARKS
BUFFALO          N/A     52  41  66 NW17      29.57R
FAITH            N/A     55  42  61 N20       29.58F
MOBRIDGE       CLOUDY    49  34  56 N16       29.59R
$$

SDZ012>016-024>037-041>051-057-063-072>074-242200-
SOUTHWEST AND SOUTH CENTRAL SOUTH DAKOTA

CITY           SKY/WX    TMP DP  RH WIND       PRES   REMARKS
RAPID CTY ARPT SUNNY     61  40  45 N18G28    29.59R
PIERRE         CLOUDY    52  39  61 NW12      29.58F
CUSTER         CLOUDY    51  36  56 S8        29.61S
ELLSWORTH AFB  CLOUDY    59  39  47 N20G26    29.58R
PHILIP         PTSUNNY   58  42  55 N14       29.59F
PINE RIDGE     CLOUDY    63  42  46 CALM      29.59F
SPEARFISH      FAIR      55  37  50 NW9G17    29.62F
WINNER         FAIR      54  39  57 NW20G29   29.60R
$$

SDZ004>011-016>023-039-040-242200-
NORTHEAST SOUTH DAKOTA

CITY           SKY/WX    TMP DP  RH WIND       PRES   REMARKS
ABERDEEN       PTSUNNY   51  36  56 N18       29.54S
WATERTOWN      MOSUNNY   62  42  47 S14G23    29.48F
BROOKINGS      MOSUNNY   64  40  41 S21G31    29.50
SISSETON         N/A     51  48  89 N14       29.49S
$$

SDZ017-020-022-023-036>040-048>070-242200-
SOUTHEAST SOUTH DAKOTA

CITY           SKY/WX    TMP DP  RH WIND       PRES   REMARKS
SIOUX FALLS    CLOUDY    65  46  50 S6        29.51F
HURON          CLOUDY    54  42  64 NW13      29.53R
CHAMBERLAIN    CLOUDY    51  41  69 W14       29.59S
MITCHELL       MOSUNNY   62  43  49 W17       29.52F
YANKTON        MOSUNNY   68  41  37 S3        29.48F
$$

ABBREVIATIONS USED IN REMARKS
   TC - TEMPERATURE IN CELSIUS
  WCI - WIND CHILL INDEX
   HX - HEAT INDEX
  VSB - VISIBILITY





USA.gov is the U.S. government's official web portal to all federal, state and local government web resources and services.